Palo Verde, AZ

1:20 AM MST on September 25, 2016 (GMT -0700)
Buckeye Municipal

Weather History for KBXK - January, 2014

Change the Weather History Date:

Friday, January 17, 2014

  Actual Average (KGYR) Record (KGYR)
Temperature  
Mean Temperature 56 °F -  
Max Temperature 73 °F 66 °F 78 °F (2000)
Min Temperature 39 °F 42 °F 28 °F (2006)
Degree Days  
Heating Degree Days 9    
Growing Degree Days 6 (Base 50)    
Moisture  
Dew Point 20 °F    
Average Humidity 27    
Maximum Humidity 42    
Minimum Humidity 13    
Precipitation  
Precipitation 0.00 in - - ()
Sea Level Pressure  
Sea Level Pressure 30.11 in    
Wind  
Wind Speed 6 mph (North)    
Max Wind Speed 10 mph    
Max Gust Speed -    
Visibility 10 miles    
Events      
Averages and records for this station are not official NWS values.
T = Trace of Precipitation, MM = Missing Value Source: NWS Daily Summary

Daily Weather History Graph

Daily Weather History Graph

Search for Another Location

Airport or City:

Trip Planner

Search our weather history database for the weather conditions in past years. The results will help you decide how hot, cold, wet, or windy it might be!

Date:

Astronomy

Jan. 17, 2014 Rise Set
Actual Time 7:34 AM MST 5:47 PM MST
Civil Twilight 7:07 AM MST 6:14 PM MST
Nautical Twilight 6:36 AM MST 6:45 PM MST
Astronomical Twilight 6:07 AM MST 7:14 PM MST
Moon 7:30 PM MST (1/17) 8:10 AM MST (1/17)
Length of Visible Light 11h 07m
Length of Day
10h 13m
Full, 98% of the Moon is Illuminated
Jan 17
Full
Jan 23
Last Quarter
Jan 30
New
Feb 6
First Quarter
Feb 14
Full

Hourly Weather History & Observations

Time (MST) Temp. Windchill Dew Point Humidity Pressure Visibility Wind Dir Wind Speed Gust Speed Precip Events Conditions
12:15 AM 46.4 °F 41.9 °F 17.6 °F 32% 30.10 in 10.0 mi North 9.2 mph - N/A   Clear
12:35 AM 46.4 °F 42.9 °F 17.6 °F 32% 30.10 in 10.0 mi NNW 6.9 mph - N/A   Clear
12:55 AM 44.6 °F 42.2 °F 19.4 °F 37% 30.10 in 10.0 mi North 4.6 mph - N/A   Clear
1:15 AM 42.8 °F 41.1 °F 19.4 °F 39% 30.10 in 10.0 mi NE 3.5 mph - N/A   Clear
1:35 AM 42.8 °F 38.6 °F 19.4 °F 39% 30.10 in 10.0 mi North 6.9 mph - N/A   Clear
1:55 AM 41.0 °F 39.0 °F 19.4 °F 42% 30.10 in 10.0 mi NNW 3.5 mph - N/A   Clear
2:15 AM 41.0 °F 37.1 °F 19.4 °F 42% 30.11 in 10.0 mi NW 5.8 mph - N/A   Clear
2:35 AM 41.0 °F 35.2 °F 17.6 °F 39% 30.11 in 10.0 mi NNW 9.2 mph - N/A   Clear
2:55 AM 42.8 °F 39.3 °F 17.6 °F 36% 30.12 in 10.0 mi NW 5.8 mph - N/A   Clear
3:15 AM 42.8 °F 38.6 °F 17.6 °F 36% 30.12 in 10.0 mi NNW 6.9 mph - N/A   Clear
3:35 AM 46.4 °F 42.4 °F 15.8 °F 29% 30.12 in 10.0 mi NNW 8.1 mph - N/A   Clear
3:55 AM 44.6 °F 40.7 °F 15.8 °F 31% 30.12 in 10.0 mi West 6.9 mph - N/A   Clear
4:15 AM 44.6 °F 39.7 °F 15.8 °F 31% 30.12 in 10.0 mi WNW 9.2 mph - N/A   Clear
4:35 AM 46.4 °F 41.9 °F 14.0 °F 27% 30.12 in 10.0 mi NNW 9.2 mph - N/A   Clear
4:55 AM 44.6 °F 39.2 °F 14.0 °F 29% 30.13 in 10.0 mi NNW 10.4 mph - N/A   Clear
5:15 AM 44.6 °F 40.2 °F 15.8 °F 31% 30.13 in 10.0 mi NNW 8.1 mph - N/A   Clear
5:35 AM 44.6 °F 42.2 °F 14.0 °F 29% 30.14 in 10.0 mi NW 4.6 mph - N/A   Clear
5:55 AM 42.8 °F 39.3 °F 15.8 °F 34% 30.14 in 10.0 mi NNW 5.8 mph - N/A   Clear
6:15 AM 41.0 °F 37.1 °F 15.8 °F 36% 30.14 in 10.0 mi NNE 5.8 mph - N/A   Clear
6:35 AM 39.2 °F 35.0 °F 15.8 °F 39% 30.15 in 10.0 mi NNE 5.8 mph - N/A   Clear
6:55 AM 39.2 °F 33.6 °F 15.8 °F 39% 30.15 in 10.0 mi North 8.1 mph - N/A   Clear
7:15 AM 41.0 °F 35.8 °F 15.8 °F 36% 30.15 in 10.0 mi NNE 8.1 mph - N/A   Clear
7:35 AM 41.0 °F 36.4 °F 15.8 °F 36% 30.16 in 10.0 mi NE 6.9 mph - N/A   Clear
7:55 AM 41.0 °F 37.1 °F 15.8 °F 36% 30.16 in 10.0 mi NNE 5.8 mph - N/A   Clear
8:15 AM 44.6 °F 41.4 °F 17.6 °F 34% 30.17 in 10.0 mi North 5.8 mph - N/A   Clear
8:35 AM 48.2 °F - 15.8 °F 27% 30.18 in 10.0 mi NNW 5.8 mph - N/A   Clear
8:55 AM 50.0 °F - 15.8 °F 26% 30.18 in 10.0 mi Calm Calm - N/A   Clear
9:15 AM 53.6 °F - 15.8 °F 22% 30.19 in 10.0 mi North 3.5 mph - N/A   Clear
9:35 AM 55.4 °F - 15.8 °F 21% 30.20 in 10.0 mi North 5.8 mph - N/A   Clear
9:55 AM 55.4 °F - 17.6 °F 23% 30.20 in 10.0 mi NNE 4.6 mph - N/A   Clear
10:15 AM 57.2 °F - 15.8 °F 20% 30.20 in 10.0 mi NE 3.5 mph - N/A   Clear
10:35 AM 60.8 °F - 19.4 °F 20% 30.20 in 10.0 mi Calm Calm - N/A   Clear
10:55 AM 62.6 °F - 17.6 °F 18% 30.19 in 10.0 mi Calm Calm - N/A   Clear
11:15 AM 62.6 °F - 19.4 °F 19% 30.19 in 10.0 mi Calm Calm - N/A   Clear
11:35 AM 64.4 °F - 21.2 °F 19% 30.18 in 10.0 mi Calm Calm - N/A   Clear
11:55 AM 64.4 °F - 19.4 °F 18% 30.17 in 10.0 mi Calm Calm - N/A   Clear
12:15 PM 66.2 °F - 19.4 °F 17% 30.15 in 10.0 mi Calm Calm - N/A   Clear
12:35 PM 66.2 °F - 23.0 °F 19% 30.14 in 10.0 mi SSW 3.5 mph - N/A   Clear
12:55 PM 68.0 °F - 24.8 °F 20% 30.12 in 10.0 mi SSW 3.5 mph - N/A   Clear
1:15 PM 69.8 °F - 24.8 °F 18% 30.11 in 10.0 mi Calm Calm - N/A   Clear
1:35 PM 71.6 °F - 24.8 °F 17% 30.10 in 10.0 mi Calm Calm - N/A   Clear
1:55 PM 71.6 °F - 21.2 °F 15% 30.10 in 10.0 mi SE 6.9 mph - N/A   Clear
2:15 PM 73.4 °F - 23.0 °F 15% 30.09 in 10.0 mi East 6.9 mph - N/A   Clear
2:35 PM 73.4 °F - 19.4 °F 13% 30.09 in 10.0 mi ESE 5.8 mph - N/A   Clear
2:55 PM 73.4 °F - 19.4 °F 13% 30.08 in 10.0 mi ESE 9.2 mph - N/A   Clear
3:15 PM 73.4 °F - 19.4 °F 13% 30.08 in 10.0 mi ESE 8.1 mph - N/A   Clear
3:35 PM 73.4 °F - 23.0 °F 15% 30.08 in 10.0 mi ESE 6.9 mph - N/A   Clear
3:55 PM 73.4 °F - 23.0 °F 15% 30.07 in 10.0 mi ESE 5.8 mph - N/A   Clear
4:15 PM 73.4 °F - 24.8 °F 16% 30.07 in 10.0 mi ESE 6.9 mph - N/A   Clear
4:35 PM 73.4 °F - 24.8 °F 16% 30.07 in 10.0 mi SE 5.8 mph - N/A   Clear
4:55 PM 71.6 °F - 26.6 °F 19% 30.07 in 10.0 mi South 3.5 mph - N/A   Clear
5:15 PM 68.0 °F - 32.0 °F 26% 30.06 in 10.0 mi West 4.6 mph - N/A   Clear
5:35 PM 68.0 °F - 26.6 °F 21% 30.06 in 10.0 mi West 3.5 mph - N/A   Clear
5:55 PM 66.2 °F - 24.8 °F 21% 30.06 in 10.0 mi NW 3.5 mph - N/A   Clear
6:15 PM 62.6 °F - 26.6 °F 26% 30.07 in 10.0 mi Calm Calm - N/A   Clear
6:35 PM 62.6 °F - 26.6 °F 26% 30.07 in 10.0 mi NW 3.5 mph - N/A   Clear
6:55 PM 57.2 °F - 21.2 °F 25% 30.07 in 9.0 mi NNW 5.8 mph - N/A   Clear
7:15 PM 57.2 °F - 23.0 °F 27% 30.07 in 10.0 mi NNW 8.1 mph - N/A   Clear
7:35 PM 55.4 °F - 23.0 °F 29% 30.07 in 10.0 mi NNW 9.2 mph - N/A   Clear
7:55 PM 55.4 °F - 23.0 °F 29% 30.07 in 10.0 mi North 10.4 mph - N/A   Clear
8:15 PM 53.6 °F - 23.0 °F 30% 30.07 in 10.0 mi North 9.2 mph - N/A   Clear
8:35 PM 53.6 °F - 23.0 °F 30% 30.07 in 10.0 mi North 9.2 mph - N/A   Clear
8:55 PM 53.6 °F - 21.2 °F 28% 30.07 in 10.0 mi North 6.9 mph - N/A   Clear
9:15 PM 50.0 °F - 23.0 °F 35% 30.07 in 10.0 mi North 6.9 mph - N/A   Clear
9:35 PM 50.0 °F - 23.0 °F 35% 30.07 in 10.0 mi NNW 6.9 mph - N/A   Clear
9:55 PM 50.0 °F - 21.2 °F 32% 30.08 in 10.0 mi North 8.1 mph - N/A   Clear
10:15 PM 53.6 °F - 19.4 °F 26% 30.08 in 10.0 mi North 6.9 mph - N/A   Clear
10:35 PM 50.0 °F - 21.2 °F 32% 30.08 in 10.0 mi North 5.8 mph - N/A   Clear
10:55 PM 51.8 °F - 19.4 °F 28% 30.08 in 10.0 mi North 9.2 mph - N/A   Clear
11:15 PM 50.0 °F - 21.2 °F 32% 30.08 in 10.0 mi East 4.6 mph - N/A   Clear
11:35 PM 51.8 °F - 19.4 °F 28% 30.08 in 10.0 mi NW 4.6 mph - N/A   Clear
11:55 PM 48.2 °F - 23.0 °F 37% 30.08 in 10.0 mi NW 6.9 mph - N/A   Clear